Newport, RI

4:15 PM EDT on August 21, 2017 (GMT -0400)
Newport State

Weather History for KUUU - September, 2013

Change the Weather History Date:

Thursday, September 5, 2013

  Actual Average Record
Temperature  
Mean Temperature 63 °F -  
Max Temperature 73 °F 75 °F 91 °F (1961)
Min Temperature 53 °F 59 °F 48 °F (2000)
Degree Days  
Heating Degree Days 2    
Growing Degree Days 13 (Base 50)    
Moisture  
Dew Point 58 °F    
Average Humidity 78    
Maximum Humidity 93    
Minimum Humidity 59    
Precipitation  
Precipitation 0.00 in - - ()
Sea Level Pressure  
Sea Level Pressure 29.97 in    
Wind  
Wind Speed 4 mph (North)    
Max Wind Speed 10 mph    
Max Gust Speed 18 mph    
Visibility 10 miles    
Events      
Averages and records for this station are not official NWS values.
T = Trace of Precipitation, MM = Missing Value Source: NWS Daily Summary

Daily Weather History Graph

Daily Weather History Graph

Search for Another Location

Airport or City:

Trip Planner

Search our weather history database for the weather conditions in past years. The results will help you decide how hot, cold, wet, or windy it might be!

Date:

Astronomy

Sep. 05, 2013 Rise Set
Actual Time 6:15 AM EDT 7:11 PM EDT
Civil Twilight 5:47 AM EDT 7:39 PM EDT
Nautical Twilight 5:13 AM EDT 8:12 PM EDT
Astronomical Twilight 4:38 AM EDT 8:47 PM EDT
Moon 6:24 AM EDT (9/5) 7:00 PM EDT (9/5)
Length of Visible Light 13h 52m
Length of Day
12h 55m
New Moon, 0% of the Moon is Illuminated
Sep 5
New Moon
Sep 12
First Quarter
Sep 19
Full
Sep 26
Last Quarter
Oct 4
New

Hourly Weather History & Observations

Time (EDT) Temp. Dew Point Humidity Pressure Visibility Wind Dir Wind Speed Gust Speed Precip Events Conditions
12:53 AM 64.9 °F 62.1 °F 90% 29.92 in 10.0 mi SSW 3.5 mph - N/A   Clear
1:53 AM 66.0 °F 63.0 °F 90% 29.91 in 10.0 mi Variable 3.5 mph - N/A   Clear
2:53 AM 66.9 °F 62.1 °F 84% 29.90 in 10.0 mi Calm Calm - N/A   Clear
3:53 AM 66.9 °F 62.1 °F 84% 29.90 in 10.0 mi Calm Calm - N/A   Clear
4:53 AM 66.0 °F 63.0 °F 90% 29.89 in 10.0 mi Variable 3.5 mph - N/A   Clear
5:53 AM 66.0 °F 63.0 °F 90% 29.90 in 10.0 mi Variable 3.5 mph - N/A   Clear
6:53 AM 66.0 °F 63.0 °F 90% 29.90 in 10.0 mi Calm Calm - N/A   Clear
7:53 AM 68.0 °F 61.0 °F 78% 29.91 in 10.0 mi West 8.1 mph - N/A   Clear
8:53 AM 68.0 °F 60.1 °F 76% 29.92 in 10.0 mi NW 4.6 mph - N/A   Mostly Cloudy
9:53 AM 68.0 °F 60.1 °F 76% 29.94 in 10.0 mi NNW 9.2 mph - N/A   Overcast
10:53 AM 68.0 °F 61.0 °F 78% 29.94 in 10.0 mi North 4.6 mph - N/A   Overcast
11:53 AM 71.1 °F 61.0 °F 70% 29.94 in 10.0 mi NNW 6.9 mph - N/A   Mostly Cloudy
12:53 PM 71.1 °F 57.9 °F 63% 29.95 in 10.0 mi North 10.4 mph 18.4 mph N/A   Scattered Clouds
1:35 PM 71.6 °F 57.2 °F 60% 29.96 in 10.0 mi North 9.2 mph - N/A   Mostly Cloudy
1:51 PM 71.6 °F 57.2 °F 60% 29.96 in 10.0 mi North 10.4 mph - N/A   Mostly Cloudy
1:53 PM 71.1 °F 55.9 °F 59% 29.96 in 10.0 mi NNW 9.2 mph - N/A   Mostly Cloudy
2:53 PM 71.1 °F 55.9 °F 59% 29.96 in 10.0 mi North 10.4 mph - N/A   Partly Cloudy
3:53 PM 68.0 °F 55.0 °F 63% 29.97 in 10.0 mi North 4.6 mph - N/A   Overcast
4:53 PM 66.9 °F 57.9 °F 73% 29.99 in 10.0 mi NE 5.8 mph - N/A   Overcast
5:53 PM 64.9 °F 57.0 °F 75% 30.01 in 10.0 mi ENE 6.9 mph - N/A   Mostly Cloudy
6:53 PM 63.0 °F 55.9 °F 78% 30.02 in 10.0 mi ENE 5.8 mph - N/A   Mostly Cloudy
7:53 PM 60.1 °F 55.9 °F 86% 30.05 in 10.0 mi Calm Calm - N/A   Clear
8:53 PM 57.9 °F 54.0 °F 87% 30.08 in 10.0 mi Calm Calm - N/A   Partly Cloudy
9:53 PM 57.0 °F 53.1 °F 87% 30.10 in 10.0 mi Calm Calm - N/A   Partly Cloudy
10:53 PM 55.0 °F 52.0 °F 89% 30.11 in 10.0 mi Calm Calm - N/A   Clear
11:53 PM 53.1 °F 51.1 °F 93% 30.12 in 10.0 mi Calm Calm - N/A   Clear